Beaumont / Port Arthur, TX

4:08 AM CDT on March 23, 2017 (GMT -0500)
Beaumont Municipal

Weather History for KBMT - April, 2014

Change the Weather History Date:

Friday, April 4, 2014

  Actual Average (KBPT) Record (KBPT)
Temperature  
Mean Temperature 70 °F -  
Max Temperature 71 °F 74 °F 87 °F (1928)
Min Temperature 70 °F 55 °F 38 °F (1987)
Cooling Degree Days 6    
Growing Degree Days 20 (Base 50)    
Moisture  
Dew Point 70 °F    
Average Humidity 96    
Maximum Humidity 98    
Minimum Humidity 94    
Precipitation  
Precipitation 0.00 in - - ()
Sea Level Pressure  
Sea Level Pressure 29.84 in    
Wind  
Wind Speed 9 mph (South)    
Max Wind Speed 13 mph    
Max Gust Speed 22 mph    
Visibility 6 miles    
Events Rain , Thunderstorm    
Averages and records for this station are not official NWS values.
T = Trace of Precipitation, MM = Missing Value Source: NWS Daily Summary

Daily Weather History Graph

Daily Weather History Graph

Search for Another Location

Airport or City:

Trip Planner

Search our weather history database for the weather conditions in past years. The results will help you decide how hot, cold, wet, or windy it might be!

Date:

Astronomy

Apr. 04, 2014 Rise Set
Actual Time 7:02 AM CDT 7:37 PM CDT
Civil Twilight 6:38 AM CDT 8:01 PM CDT
Nautical Twilight 6:10 AM CDT 8:30 PM CDT
Astronomical Twilight 5:41 AM CDT 8:58 PM CDT
Moon 10:35 AM CDT (4/4) No Moon Set
Length of Visible Light 13h 23m
Length of Day
12h 34m
Waxing Crescent, 25% of the Moon is Illuminated
Apr 4
Waxing Crescent
Apr 7
First Quarter
Apr 15
Full
Apr 22
Last Quarter
Apr 29
New

Hourly Weather History & Observations

Time (CDT) Temp. Dew Point Humidity Pressure Visibility Wind Dir Wind Speed Gust Speed Precip Events Conditions
12:15 AM 71.8 °F 70.0 °F 94% 29.87 in 7.0 mi South 10.4 mph 19.6 mph N/A   Overcast
12:35 AM 71.6 °F 69.8 °F 94% 29.87 in 7.0 mi South 8.1 mph - N/A   Overcast
12:55 AM 71.6 °F 69.8 °F 94% 29.87 in 7.0 mi South 8.1 mph 17.3 mph N/A   Overcast
1:15 AM 71.2 °F 69.8 °F 95% 29.84 in 7.0 mi SSE 6.9 mph 21.9 mph N/A   Overcast
1:35 AM 70.9 °F 69.8 °F 96% 29.84 in 7.0 mi South 10.4 mph 20.7 mph N/A   Overcast
1:55 AM 70.9 °F 69.8 °F 96% 29.83 in 7.0 mi SSE 9.2 mph 19.6 mph N/A   Overcast
2:15 AM 71.1 °F 69.8 °F 96% 29.84 in 7.0 mi South 10.4 mph 19.6 mph N/A   Overcast
2:35 AM 71.1 °F 69.8 °F 96% 29.84 in 7.0 mi South 10.4 mph 17.3 mph N/A   Overcast
2:55 AM 71.1 °F 69.8 °F 96% 29.83 in 7.0 mi South 12.7 mph 20.7 mph N/A   Overcast
3:15 AM 71.1 °F 69.8 °F 96% 29.82 in 7.0 mi SSE 10.4 mph 21.9 mph N/A   Overcast
3:35 AM 70.9 °F 69.8 °F 96% 29.82 in 7.0 mi South 10.4 mph 21.9 mph N/A   Overcast
3:55 AM 70.9 °F 69.8 °F 96% 29.83 in 7.0 mi South 8.1 mph 17.3 mph N/A   Overcast
4:15 AM 70.9 °F 69.8 °F 96% 29.82 in 7.0 mi South 4.6 mph 18.4 mph N/A   Overcast
4:35 AM 70.9 °F 69.8 °F 96% 29.83 in 7.0 mi South 5.8 mph - N/A Thunderstorm Overcast
4:55 AM 70.9 °F 69.8 °F 96% 29.84 in 5.0 mi SSW 6.9 mph - N/A   Overcast
5:15 AM 70.7 °F 70.0 °F 98% 29.84 in 3.0 mi SSW 10.4 mph 17.3 mph N/A Thunderstorm Drizzle
5:35 AM 70.7 °F 70.0 °F 98% 29.85 in 4.0 mi SSW 9.2 mph - N/A Thunderstorm Unknown
5:55 AM 70.3 °F 69.8 °F 98% 29.85 in 5.0 mi SSW 6.9 mph 18.4 mph N/A Rain , Thunderstorm Thunderstorms and Rain
6:10 AM 70.3 °F 69.8 °F 98% 29.86 in 5.0 mi SSW 8.1 mph 19.6 mph N/A Thunderstorm Overcast